Total_Precipitation_Accumulation
0.03 0.04 0.05 0.05 0.05 0.08 0.09 0.10 0.16 0.19 0.22 0.30 0.43 0.63 0.82 0.87 1.03 1.11 1.28 1.32 1.55 1.65 1.80 2.20 2.67 3.04 3.44 3.52 3.63 3.61 3.70 3.87 4.00 4.13 4.12 4.25 4.19 4.11 4.31 4.50 4.56 4.68 4.74 4.59
0.04 0.03 0.03 0.03 0.03 0.07 0.10 0.12 0.21 0.30 0.30 0.40 0.51 0.68 0.89 1.00 0.98 1.18 1.41 1.44 1.90 2.02 2.02 2.23 2.72 3.11 3.45 3.68 3.79 3.92 4.02 4.02 4.14 4.54 4.96 5.28 5.53 5.53 5.44 5.53 5.56 5.40 5.27 5.18
0.04 0.03 0.02 0.03 0.04 0.08 0.13 0.15 0.23 0.36 0.36 0.47 0.61 1.01 1.14 1.10 1.10 1.27 1.51 1.60 1.97 2.19 2.31 2.17 2.30 2.72 3.14 3.47 3.70 3.79 4.04 4.36 4.83 5.40 5.81 6.12 6.39 6.46 6.25 6.02 5.91 5.64 5.41 5.27
0.04 0.03 0.02 0.03 0.05 0.07 0.12 0.12 0.18 0.25 0.35 0.55 0.59 1.15 1.36 1.30 1.37 1.48 1.57 1.53 1.75 1.80 2.04 2.18 2.21 2.45 2.80 3.09 3.39 3.68 3.95 4.53 5.41 6.07 6.51 6.85 6.95 6.87 6.70 6.47 6.09 5.59 5.21 4.88
0.05 0.04 0.05 0.04 0.03 0.04 0.06 0.08 0.14 0.18 0.25 0.43 0.50 0.98 1.34 1.32 1.50 1.64 1.75 1.59 1.65 1.79 1.78 1.88 1.96 2.14 2.53 2.88 3.15 3.50 3.85 4.51 5.20 5.83 6.41 6.83 6.94 6.85 6.61 6.15 5.64 5.07 4.60 4.19
0.05 0.04 0.03 0.03 0.02 0.03 0.04 0.09 0.18 0.25 0.39 0.63 0.53 0.83 1.44 1.60 1.75 1.93 1.89 1.90 2.09 2.03 1.86 1.82 1.79 1.86 2.10 2.45 2.74 3.12 3.53 4.07 4.64 5.04 5.55 5.92 6.09 5.98 5.61 5.09 4.49 4.06 3.75 3.46
0.08 0.06 0.03 0.04 0.04 0.05 0.06 0.17 0.48 0.61 0.69 0.72 0.50 0.89 1.63 1.83 1.79 1.94 2.03 2.08 2.19 2.11 2.00 1.88 1.81 1.79 1.91 2.15 2.41 2.67 2.92 3.36 3.68 4.01 4.43 4.68 4.67 4.48 4.21 3.94 3.71 3.31 2.90 2.57
0.18 0.14 0.07 0.05 0.07 0.08 0.07 0.14 0.49 0.79 0.77 0.73 0.78 1.41 2.00 1.94 1.77 1.73 1.85 1.96 1.98 1.81 1.75 1.75 1.72 1.74 1.86 1.86 2.01 2.19 2.31 2.52 2.70 2.87 3.07 3.07 3.03 2.97 2.94 2.81 2.55 2.29 1.98 1.69
0.26 0.20 0.09 0.05 0.04 0.06 0.08 0.13 0.20 0.39 0.48 0.80 1.29 1.84 2.21 1.97 1.88 1.83 1.71 1.56 1.69 1.65 1.55 1.59 1.65 1.68 1.77 1.73 1.70 1.79 1.82 1.82 1.88 1.92 2.05 2.08 2.03 2.04 2.02 1.93 1.78 1.63 1.51 1.33
0.21 0.21 0.12 0.06 0.06 0.08 0.09 0.12 0.19 0.39 0.79 1.09 1.46 1.97 2.43 2.38 2.31 2.26 1.99 1.67 1.73 1.70 1.65 1.58 1.53 1.59 1.65 1.57 1.53 1.56 1.60 1.52 1.48 1.42 1.41 1.41 1.47 1.47 1.46 1.44 1.33 1.26 1.23 1.15
0.18 0.20 0.18 0.11 0.13 0.15 0.13 0.15 0.22 0.43 0.65 1.08 1.72 2.32 2.27 2.50 2.59 2.43 2.11 1.78 1.76 1.69 1.67 1.70 1.63 1.52 1.48 1.45 1.44 1.36 1.32 1.29 1.24 1.18 1.16 1.11 1.08 1.07 1.06 1.01 0.95 0.94 0.92 0.90
0.19 0.24 0.29 0.19 0.15 0.15 0.17 0.20 0.24 0.54 0.65 0.77 1.46 2.37 2.33 2.54 2.60 2.41 2.34 2.11 1.91 1.89 1.77 1.67 1.62 1.52 1.49 1.35 1.29 1.25 1.20 1.12 1.06 1.05 1.03 0.95 0.90 0.90 0.92 0.88 0.81 0.76 0.77 0.77
0.21 0.37 0.57 0.65 0.51 0.28 0.21 0.19 0.25 0.33 0.51 0.82 1.42 2.32 2.42 2.43 2.31 2.22 2.13 2.10 2.15 2.21 2.04 1.80 1.64 1.43 1.30 1.16 1.07 1.05 1.03 0.98 0.96 1.00 1.01 0.98 0.90 0.86 0.82 0.79 0.72 0.68 0.71 0.71
0.20 0.40 0.75 1.20 0.95 0.48 0.32 0.27 0.30 0.38 0.68 0.99 1.27 1.86 2.18 2.31 2.35 2.38 2.32 2.28 2.19 1.93 1.64 1.49 1.38 1.21 1.11 1.02 0.97 0.91 0.86 0.87 0.87 0.92 1.01 1.03 0.97 0.89 0.81 0.78 0.80 0.73 0.69 0.66
0.26 0.48 0.53 0.55 0.47 0.36 0.34 0.33 0.38 0.46 0.59 0.92 1.20 1.70 2.14 2.29 2.36 2.30 2.31 2.20 1.91 1.68 1.55 1.44 1.31 1.24 1.13 1.00 0.89 0.79 0.75 0.78 0.78 0.86 0.90 0.88 0.84 0.83 0.77 0.74 0.77 0.72 0.68 0.64
0.29 0.55 0.52 0.50 0.41 0.44 0.50 0.50 0.54 0.54 0.63 0.86 1.21 1.78 2.07 2.26 2.31 2.20 2.22 2.10 1.96 1.84 1.74 1.59 1.44 1.34 1.20 1.02 0.92 0.86 0.83 0.83 0.80 0.82 0.84 0.76 0.70 0.69 0.67 0.67 0.64 0.60 0.62 0.67
0.35 0.56 0.69 0.64 0.41 0.63 1.05 0.81 0.72 0.82 0.84 1.08 1.48 1.74 1.70 1.80 1.92 2.00 2.07 2.05 1.95 1.86 1.81 1.74 1.67 1.58 1.37 1.20 1.11 1.04 0.98 0.86 0.81 0.80 0.77 0.73 0.72 0.70 0.66 0.63 0.63 0.61 0.63 0.66
0.36 0.58 0.67 0.71 0.81 1.43 1.40 0.88 0.79 0.91 1.04 1.00 1.16 1.28 1.36 1.41 1.55 1.65 1.72 1.86 1.93 1.92 1.84 1.78 1.68 1.61 1.49 1.33 1.17 1.03 0.92 0.84 0.79 0.78 0.72 0.67 0.68 0.71 0.71 0.73 0.75 0.72 0.67 0.70
0.26 0.52 0.77 0.94 1.27 1.53 1.38 0.91 0.87 1.21 1.48 1.09 1.00 1.02 1.03 1.08 1.29 1.59 1.69 1.81 1.90 1.87 1.82 1.77 1.66 1.56 1.47 1.29 1.11 0.97 0.93 0.83 0.79 0.73 0.66 0.61 0.60 0.65 0.67 0.69 0.72 0.72 0.73 0.75
0.23 0.40 0.82 1.11 1.54 1.85 1.69 0.83 0.60 1.10 1.93 1.21 0.94 0.98 1.09 1.28 1.63 1.64 1.45 1.41 1.59 1.71 1.77 1.75 1.58 1.41 1.29 1.10 0.93 0.88 0.85 0.78 0.74 0.65 0.57 0.54 0.57 0.61 0.61 0.63 0.68 0.71 0.73 0.74
0.58 0.68 0.91 1.22 1.63 1.73 1.01 0.56 0.72 1.67 1.92 1.30 1.13 1.14 1.25 1.46 1.56 1.31 1.13 1.17 1.30 1.47 1.53 1.46 1.37 1.26 1.08 0.89 0.83 0.87 0.78 0.70 0.60 0.53 0.54 0.57 0.61 0.65 0.61 0.64 0.70 0.72 0.70 0.74
0.78 1.06 1.21 1.39 1.75 1.77 0.76 0.59 1.08 1.36 1.04 0.93 0.89 0.88 1.00 1.01 0.94 0.91 0.97 1.10 1.23 1.33 1.31 1.24 1.21 1.11 0.99 0.88 0.88 0.93 0.85 0.67 0.56 0.57 0.58 0.59 0.61 0.51 0.49 0.65 0.68 0.65 0.70 0.74
0.67 0.92 1.15 1.39 1.58 1.25 0.72 0.66 0.72 0.76 0.81 0.76 0.77 0.72 0.77 0.82 0.83 0.85 0.89 1.04 1.13 1.16 1.13 1.03 0.95 0.94 0.93 0.91 0.93 0.95 0.85 0.68 0.64 0.71 0.70 0.64 0.63 0.60 0.63 0.66 0.62 0.60 0.62 0.59
0.64 0.53 0.74 1.01 0.97 0.80 0.67 0.61 0.54 0.52 0.59 0.58 0.60 0.63 0.72 0.85 0.85 0.87 0.84 0.88 0.95 0.96 0.95 0.92 0.87 0.89 0.86 0.82 0.76 0.79 0.72 0.66 0.74 0.78 0.72 0.67 0.68 0.71 0.68 0.61 0.50 0.47 0.44 0.42
0.67 0.77 1.04 1.25 1.01 0.88 0.78 0.62 0.52 0.45 0.42 0.43 0.50 0.54 0.62 0.71 0.73 0.71 0.74 0.76 0.75 0.73 0.75 0.78 0.81 0.77 0.70 0.65 0.60 0.60 0.60 0.62 0.77 0.80 0.74 0.67 0.60 0.58 0.58 0.46 0.34 0.34 0.32 0.29
0.54 0.91 1.42 1.28 1.02 1.06 0.88 0.66 0.54 0.51 0.53 0.51 0.46 0.44 0.47 0.55 0.59 0.57 0.61 0.62 0.59 0.57 0.61 0.66 0.68 0.63 0.59 0.57 0.55 0.56 0.53 0.52 0.67 0.72 0.68 0.58 0.47 0.42 0.37 0.33 0.33 0.27 0.23 0.25